Regional Weather Roundup
Issued by NWS

Home | Current Version | Previous Version | Graphics & Text | Print | Product List | Glossary On
Versions: 1 2 3 4 5 6 7 8 9 10 11 12 13 14 15 16 17 18 19 20 21 22 23 24 25 26 27 28 29 30 31 32 33 34 35 36 37 38 39 40 41 42 43 44 45 46 47 48 49 50
290
ASUS45 KTFX 130310
RWRMT
MONTANA REGIONAL WEATHER ROUNDUP
NATIONAL WEATHER SERVICE GREAT FALLS MT
800 PM MST TUE DEC 12 2017

NOTE: "FAIR" INDICATES FEW OR NO CLOUDS BELOW 12000 FEET WITH NO
SIGNIFICANT WEATHER AND/OR OBSTRUCTIONS TO VISIBILITY.

MTZ001>007-043-130400-
WEST OF THE DIVIDE

CITY           SKY/WX    TMP DP  RH WIND       PRES   REMARKS
KALISPELL      CLOUDY    26  23  88 CALM      30.41R FOG
MISSOULA       FAIR      21  18  88 CALM      30.42F
BUTTE          FAIR      26  18  71 SE3       30.34R
MULLAN PASS    CLOUDY    31   8  38 CALM      30.33F
ANACONDA         N/A     27  18  69 SW3       30.34S
DEER LODGE       N/A     25  21  86 E3        30.36F
EUREKA           N/A     21  18  86 MISG      30.46R
HAMILTON         N/A     19  18  93 CALM      30.40S
LIBBY            N/A     21  19  93 CALM      30.43F
$$

MTZ008-052>055-130400-
SOUTHWEST MONTANA

CITY           SKY/WX    TMP DP  RH WIND       PRES   REMARKS
BOZEMAN        CLOUDY    29  23  78 W3        30.29F
DILLON         FAIR      36  21  54 S7        30.30F WCI  30
W YELLOWSTONE  FAIR      25  14  63 SW3       30.35F
ENNIS          CLOUDY    39  18  41 S9G15     30.34S
$$

MTZ009-010-012-014-046-048-049-054-130400-
EAST SLOPES AND CENTRAL MONTANA

CITY           SKY/WX    TMP DP  RH WIND       PRES   REMARKS
CUT BANK       FAIR      39  11  31 W20       30.18R WCI  29
GREAT FALLS    MOCLDY    44   6  21 W16       30.19R
MALMSTROM AFB  MOCLDY    48   5  17 W15G24    30.19R
HELENA         CLOUDY    29  21  72 SW10      30.28S WCI  20
BOWMANS CRNR   CLOUDY    41   7  24 W15       30.20R
CHOTEAU          N/A     46  12  25 W13       30.20R
FAIRFIELD      MOCLDY    46  10  23 W17       30.18R
POWER          MOCLDY    42   9  25 W13       30.18R
RAYNESFORD     MOCLDY    50   5  16 W24G35    30.16R
ULM            MOCLDY    48   6  17 W21G29    30.20R
$$

MTZ011-013-016-021-045-047-050-051-130400-
NORTH CENTRAL MONTANA

CITY           SKY/WX    TMP DP  RH WIND       PRES   REMARKS
HAVRE          FAIR      40  13  33 W12       30.11R
LEWISTOWN      FAIR      37  17  44 W6        30.13R
N BAR RANCH    MOCLDY    43   5  21 W5        30.14S
CHINOOK          N/A     39  10  30 W10       30.08R
DENTON         FAIR      46   5  18 NW17      30.10R
GEYSER         MOCLDY    46   6  19 NW21      30.15R
GRASS RANGE    CLOUDY    50  11  21 NW21G32   30.07F
STANFORD       FAIR      45   8  22 NW18G26   30.14R
WINIFRED       MOCLDY    45   4  18 W9        30.12R
$$

MTZ017>020-022>027-061-062-130400-
NORTHEAST MONTANA

CITY           SKY/WX    TMP DP  RH WIND       PRES   REMARKS
GLASGOW        CLOUDY    48  24  39 NW26G35   29.94R
GLENDIVE       FAIR      50  23  34 NW26G33   29.86R
JORDAN           N/A     50  20  30 NW20      30.01R
SIDNEY         FAIR      49  26  41 NW21G32   29.79R
WOLF POINT     CLOUDY    51  26  37 NW25G38   29.88R
MALTA          CLOUDY    45  18  33 W13       30.02S
PLENTYWOOD       N/A     45  28  53 NW32G43   29.74R
$$

MTZ028>42-056>058-130400-
SOUTHCENTRAL AND SOUTHEAST MONTANA

CITY           SKY/WX    TMP DP  RH WIND       PRES   REMARKS
BAKER          FAIR      48  19  31 NW26G33   29.86R
BILLINGS       MOCLDY    54   6  14 NW15G26   30.10S
LIVINGSTON     MOCLDY    48   9  20 SW21G26   30.20F
MILES CITY     FAIR      52  17  25 NW16G31   29.99R
BIG TIMBER     CLOUDY    48   1  14 SW13      30.22R
FORSYTH          N/A     54   7  15 W18G30    30.02R
LAUREL           N/A     50   3  14 W9        30.11F
$$

REGIONAL REPORTS...DAKOTAS

CITY           SKY/WX    TMP DP  RH WIND       PRES   REMARKS
WILLISTON      MOCLDY    48  27  44 NW36G46   29.71R
MINOT          FAIR      46  23  40 W30G44    29.54R
DICKINSON      FAIR      47  18  31 W28G36    29.68S
BEACH          FAIR      48  18  29 NW28G36   29.83R
CROSBY         FAIR      41  30  65 NW25G37   29.69R
TIOGA          FAIR      41  28  60 NW26G33   29.68R
WATFORD CITY   FAIR      46  25  42 NW21G30   29.70R
BISMARCK       FAIR      49  19  30 W14       29.59F
GRAND FORKS    CLOUDY    30  28  92 S9        29.47F WCI  22
FARGO          FAIR      35  29  78 S10       29.53F WCI  27
BUFFALO SD       N/A     53  13  20 W32G39    29.78S
RAPID CITY     FAIR      55  11  17 NW20      29.87F
$$

REGIONAL REPORTS...WYOMING/IDAHO/WASHINGTON

CITY           SKY/WX    TMP DP  RH WIND       PRES   REMARKS
GILLETTE       FAIR      48   9  20 W15       30.03R
SHERIDAN       FAIR      43   9  24 N9        30.08R
BUFFALO WY     FAIR      51   0  12 N20G25    30.07F
CODY           FAIR      50   2  14 W10       30.16S
YELLOWSTONE LA   N/A     17  14  88 CALM      30.36F
IDAHO FALLS    FAIR      20  15  81 CALM      30.43S
SALMON         FAIR      16  13  88 CALM      30.51F
BOISE          CLOUDY    23  21  92 NW6       30.53F FOG     WCI  16
SPOKANE        CLOUDY    25  24  96 N6        30.48S FOG     WCI  18
$$

REGIONAL REPORTS...ALBERTA

CITY           SKY/WX    TMP DP  RH WIND       PRES   REMARKS
EDMONTON       PTCLDY    39  27  60 W16G22    30.09R WCI  30
CALGARY        CLEAR     39  14  35 NW2       30.16S
LETHBRIDGE     CLEAR     36  14  41 W13       30.19R WCI  27
MEDICINE HAT   CLEAR     43  23  45 NW16G22   30.12R
$$

REGIONAL REPORTS...SASKATCHEWAN

CITY           SKY/WX    TMP DP  RH WIND       PRES   REMARKS
SWIFT CURRENT  CLEAR     37  25  60 NW25G33   29.91R WCI  26
REGINA         CLOUDY    37  30  75 NW20      29.74R WCI  27
SASKATOON      PTCLDY    36  30  80 NW12      29.83R WCI  27
$$




USA.gov is the U.S. government's official web portal to all federal, state and local government web resources and services.